Wind_Speed
22 23 20 19 20 19 19 17 17 17 18 20 19 18 18 18 18 17 18 19 19 19 19 17 17 17 16 16 16 16 16 16 17 17 18 19 18 16 15 14 13 12 11 11
24 23 21 21 21 21 21 20 19 18 19 20 20 20 20 19 19 18 19 20 20 20 21 19 17 17 17 17 17 17 18 18 18 18 18 18 17 16 15 14 13 13 12 11
24 22 22 23 23 23 23 22 21 20 20 21 21 21 21 20 20 19 19 19 20 21 20 18 18 18 18 18 17 17 18 18 19 19 19 18 16 15 15 15 14 13 12 12
24 23 23 24 24 23 24 22 22 21 20 21 20 21 20 20 21 21 21 20 20 21 21 20 18 19 19 19 19 18 18 18 19 19 18 17 17 16 15 15 13 13 12 12
24 24 25 26 25 24 23 21 20 20 21 23 20 21 20 20 22 22 21 20 19 21 20 21 20 19 20 19 19 19 18 18 18 18 17 16 16 15 15 15 13 13 13 12
25 25 26 26 25 25 23 21 20 20 21 23 20 20 22 21 22 23 23 20 20 21 20 21 22 20 20 20 19 18 18 18 18 17 16 16 16 15 15 14 14 13 13 13
24 25 26 26 26 25 24 22 20 20 21 21 18 20 22 22 22 22 23 21 21 19 20 21 21 20 20 20 19 19 19 19 18 18 17 17 16 15 15 14 14 14 14 13
23 24 25 25 25 24 24 23 22 21 19 18 18 20 21 21 24 24 22 22 22 20 20 21 21 20 20 20 20 19 19 19 19 18 17 17 16 15 15 14 14 14 14 13
22 23 23 24 24 24 23 24 22 22 20 21 19 18 21 21 22 23 22 23 22 21 20 21 21 20 20 20 20 19 18 19 19 18 17 17 17 16 15 15 15 14 14 14
23 23 23 24 25 25 25 23 23 24 22 22 19 19 21 20 20 22 23 23 22 20 21 21 20 20 19 19 20 20 19 18 18 18 18 17 17 16 16 16 15 15 15 14
25 25 24 23 25 24 24 24 25 24 23 22 20 20 22 23 23 22 22 21 21 21 21 20 20 19 19 18 19 19 19 19 18 18 18 17 17 16 16 16 15 15 14 14
26 27 26 25 25 25 25 26 25 25 24 24 22 21 20 21 22 22 23 22 22 21 21 20 20 19 19 19 19 18 20 20 19 19 18 18 17 16 16 15 15 16 15 15
27 28 27 26 25 26 26 26 25 24 25 24 23 20 22 23 23 22 23 25 23 22 21 21 21 20 20 20 20 20 20 20 20 19 19 18 17 16 15 14 14 15 15 15
28 29 29 27 25 25 25 26 26 26 26 25 24 22 23 23 23 22 24 25 24 22 21 21 21 21 20 21 21 22 22 21 20 20 20 19 18 17 16 16 15 15 15 16
29 29 29 28 25 24 27 27 26 27 27 26 25 24 24 24 24 24 23 23 22 21 21 22 21 21 21 21 21 22 21 21 21 21 21 20 19 17 17 16 15 15 16 16
30 30 29 28 26 25 26 28 28 28 27 27 26 25 24 23 23 24 24 22 23 22 22 21 20 21 21 21 21 21 21 20 20 20 20 19 19 18 17 16 16 16 16 16
31 29 28 29 27 28 28 26 27 27 28 29 28 26 25 25 27 27 25 23 23 23 21 21 21 21 21 21 22 21 20 19 19 19 19 19 19 19 18 17 17 17 17 17
29 29 28 28 28 29 28 26 26 27 28 28 29 27 27 26 27 27 26 25 24 24 23 22 22 21 21 22 22 21 20 20 20 19 19 19 19 19 19 19 18 18 18 18
27 28 28 27 27 27 27 26 27 28 28 29 28 28 28 29 28 28 27 26 26 26 25 23 23 23 23 22 21 21 20 19 19 18 18 18 18 19 19 20 20 19 18 17
25 26 27 27 26 25 27 26 26 28 29 28 29 29 28 30 30 29 27 27 26 25 25 25 24 23 23 22 21 21 20 19 19 19 19 19 19 19 19 19 18 18 17 17
24 25 26 26 26 25 26 25 24 27 29 29 30 31 31 31 31 29 28 26 25 24 24 24 23 22 22 22 21 21 20 19 20 20 19 19 19 19 19 18 17 17 18 18
21 24 25 26 27 28 26 23 25 27 27 28 30 29 29 30 29 27 27 25 24 24 24 23 23 22 22 22 21 21 20 20 20 19 18 18 18 18 18 19 19 19 19 19
23 23 24 25 26 26 25 25 27 28 27 27 28 29 28 28 28 26 26 25 24 24 24 24 23 23 22 22 21 21 21 21 20 20 19 19 19 19 19 19 20 20 20 20
24 25 24 24 25 25 25 26 26 26 25 25 25 27 26 27 27 27 26 25 25 25 25 24 24 24 24 23 23 22 22 22 21 21 22 22 21 21 21 20 20 20 20 20
24 23 24 25 26 25 24 25 26 26 25 24 24 25 26 27 27 28 26 25 25 25 25 25 25 24 24 24 24 24 24 23 23 22 22 23 23 23 22 22 21 21 20 20
21 21 22 24 26 26 24 26 26 25 24 23 23 24 25 26 25 26 25 24 24 24 24 24 24 24 24 24 24 24 25 25 24 24 24 24 24 24 23 23 22 22 21 20
Wind_Direction
237 238 239 241 242 242 243 243 248 250 254 261 263 258 259 263 261 264 269 273 277 276 278 278 284 288 290 292 296 299 301 303 308 312 313 313 311 308 308 309 309 306 302 299
239 240 240 239 239 239 243 244 244 242 245 254 263 260 257 258 261 264 267 273 276 278 279 278 281 286 288 289 292 297 300 301 305 309 310 312 311 308 305 306 305 304 300 299
240 239 241 241 242 241 243 242 241 241 247 254 260 263 257 257 260 264 267 267 271 276 277 280 280 283 286 287 289 293 298 300 303 306 308 310 307 308 307 304 303 303 302 300
239 237 238 241 241 242 245 245 243 241 245 254 257 260 262 262 263 264 264 264 266 270 275 279 280 282 284 286 288 289 294 298 301 304 305 306 306 307 307 307 305 305 305 301
238 237 238 241 242 241 242 243 243 243 247 251 250 255 255 257 262 265 264 265 264 266 271 276 279 281 282 283 285 287 289 293 298 302 303 302 302 303 304 304 303 304 306 305
239 239 240 242 242 242 242 241 243 247 249 251 249 253 255 255 258 263 267 265 263 265 270 274 277 280 280 279 280 284 288 291 295 300 301 300 299 299 300 300 300 301 305 303
240 240 242 241 242 241 240 238 240 244 249 255 255 253 254 254 253 257 263 266 265 265 267 271 274 280 280 280 279 283 287 290 293 296 297 297 296 294 295 296 297 299 303 301
240 244 243 242 241 240 239 236 236 240 247 255 255 251 249 253 254 253 259 265 267 268 268 268 270 276 278 278 279 282 285 288 289 291 292 292 293 290 291 293 295 295 297 298
234 243 244 244 243 240 236 234 235 239 241 247 250 252 243 244 255 258 257 261 264 267 269 269 273 274 274 276 278 280 282 286 288 289 290 289 290 289 286 289 291 293 293 293
232 237 236 243 243 240 237 234 231 230 236 244 247 248 254 255 259 265 263 262 262 265 269 271 273 272 273 275 278 279 283 285 286 287 288 288 288 289 288 289 290 290 291 288
232 235 232 235 238 238 234 231 231 231 231 236 245 246 249 252 254 257 261 264 265 265 267 269 269 271 274 276 279 280 281 284 283 283 285 284 285 287 287 287 290 290 288 287
230 231 231 231 236 239 232 232 231 234 234 231 235 244 247 253 255 258 264 265 265 263 263 266 268 271 274 276 277 279 281 280 279 280 281 281 283 286 286 285 286 287 286 285
231 231 231 230 232 236 234 231 231 233 236 235 235 244 249 251 255 260 263 266 264 262 262 264 266 269 273 275 276 278 281 281 278 277 279 280 283 284 283 284 286 288 288 286
231 232 232 230 232 234 236 233 230 229 231 234 235 241 248 252 252 258 261 266 265 261 263 263 266 269 273 275 277 277 278 280 278 275 275 277 280 280 280 283 285 286 289 289
233 233 231 228 228 231 235 235 232 229 229 233 231 236 247 254 257 262 263 264 265 262 262 263 265 268 273 277 278 278 276 276 277 276 273 272 274 275 278 282 285 286 287 289
233 232 229 228 229 232 231 231 233 233 232 233 232 235 246 253 258 264 264 262 263 262 260 263 267 269 272 276 279 280 280 276 276 275 273 269 269 271 274 277 280 284 287 290
234 235 235 233 232 232 232 232 232 237 237 235 233 235 242 248 255 260 263 264 262 259 262 266 270 272 273 276 279 279 278 277 277 274 270 268 266 267 271 273 277 281 285 287
234 235 236 236 235 234 234 234 236 237 238 238 235 235 238 244 249 255 259 261 261 260 263 265 269 270 273 275 276 276 276 275 276 277 273 270 267 266 268 270 275 277 280 282
236 236 237 233 236 236 233 231 231 235 238 237 237 238 239 242 248 253 256 258 260 261 262 264 268 271 273 273 274 274 275 275 276 275 275 272 271 268 268 271 272 274 277 279
235 236 235 231 233 237 234 232 232 237 240 237 237 239 240 243 247 253 256 257 259 260 261 263 266 269 272 272 272 274 273 274 273 274 274 273 272 271 272 273 273 273 272 273
234 233 233 234 236 238 235 232 229 233 236 235 236 236 236 241 246 252 255 255 256 259 260 261 264 268 270 272 274 274 272 271 272 271 270 271 271 272 272 271 272 271 270 272
232 232 232 233 235 237 236 235 233 234 236 238 238 238 238 242 246 250 253 254 254 257 259 260 262 265 268 270 271 271 271 269 268 267 267 268 270 272 272 271 270 270 271 273
229 230 230 231 233 236 237 237 237 238 237 237 239 241 242 242 244 247 250 251 252 255 257 258 260 262 264 266 267 270 271 269 266 265 266 268 269 271 271 271 272 270 270 272
229 228 230 232 233 236 237 236 237 239 238 237 240 243 243 243 244 245 247 249 252 257 258 258 258 259 262 264 266 268 270 270 268 268 268 269 268 271 271 271 270 270 270 271
231 232 231 233 233 236 239 239 240 241 240 238 241 245 246 245 245 246 247 249 252 256 258 259 262 262 263 264 264 265 268 269 268 268 269 269 269 269 270 270 272 272 272 275
230 233 233 235 236 237 237 237 240 241 243 242 243 248 247 245 245 244 245 249 252 257 258 260 262 262 263 263 263 265 266 266 266 266 267 268 268 267 267 269 272 274 273 274
Height
5851 5854 5856 5859 5862 5864 5866 5868 5870 5872 5873 5872 5872 5873 5873 5873 5872 5874 5875 5874 5873 5872 5872 5872 5872 5872 5872 5871 5871 5870 5869 5868 5867 5865 5863 5861 5860 5858 5857 5856 5855 5854 5854 5853
5846 5849 5853 5855 5857 5859 5861 5863 5866 5868 5869 5869 5868 5869 5870 5870 5869 5871 5872 5871 5870 5870 5868 5868 5869 5869 5869 5869 5868 5867 5866 5865 5864 5862 5861 5859 5857 5856 5855 5854 5853 5852 5851 5851
5841 5846 5848 5850 5852 5854 5857 5859 5861 5864 5864 5864 5865 5865 5866 5866 5865 5868 5868 5868 5868 5867 5865 5865 5866 5866 5866 5866 5865 5865 5864 5863 5861 5860 5858 5857 5855 5854 5853 5852 5851 5850 5849 5849
5836 5840 5843 5845 5847 5850 5852 5854 5856 5858 5859 5860 5862 5861 5862 5862 5862 5863 5864 5864 5865 5864 5863 5862 5862 5863 5862 5862 5862 5861 5861 5860 5859 5857 5856 5854 5853 5852 5851 5850 5849 5848 5847 5847
5831 5834 5837 5839 5842 5845 5847 5849 5851 5852 5853 5855 5856 5858 5859 5859 5858 5859 5859 5860 5861 5860 5860 5859 5859 5859 5859 5859 5858 5858 5858 5857 5856 5854 5853 5852 5851 5850 5849 5848 5847 5846 5845 5845
5825 5828 5831 5834 5836 5839 5841 5844 5845 5847 5849 5849 5851 5853 5854 5855 5855 5855 5854 5855 5856 5855 5856 5856 5855 5855 5855 5855 5855 5854 5854 5854 5852 5851 5850 5849 5848 5847 5847 5846 5845 5844 5843 5843
5819 5822 5824 5827 5830 5833 5835 5838 5841 5842 5843 5844 5847 5848 5849 5850 5851 5851 5850 5850 5851 5851 5852 5852 5851 5851 5851 5850 5850 5851 5851 5850 5849 5848 5847 5846 5845 5845 5844 5843 5843 5842 5841 5841
5814 5816 5818 5821 5824 5827 5830 5833 5836 5838 5841 5843 5843 5843 5845 5845 5845 5846 5846 5845 5847 5847 5848 5848 5847 5848 5847 5847 5847 5847 5847 5846 5845 5845 5844 5843 5842 5842 5841 5841 5840 5839 5839 5838
5809 5812 5814 5815 5818 5821 5824 5827 5831 5834 5835 5837 5838 5838 5839 5840 5840 5840 5840 5841 5842 5843 5843 5843 5843 5843 5843 5843 5843 5843 5842 5842 5841 5841 5840 5839 5839 5838 5838 5838 5837 5837 5836 5836
5803 5805 5809 5810 5812 5815 5819 5822 5825 5827 5829 5832 5835 5835 5834 5834 5836 5836 5835 5836 5837 5838 5838 5839 5839 5839 5839 5839 5839 5839 5837 5837 5838 5837 5836 5836 5835 5835 5835 5835 5834 5834 5833 5833
5796 5799 5802 5805 5806 5809 5813 5816 5818 5821 5824 5827 5830 5833 5829 5829 5830 5831 5831 5831 5832 5834 5834 5835 5835 5835 5834 5835 5834 5833 5833 5833 5833 5833 5833 5832 5832 5832 5831 5831 5831 5831 5830 5829
5789 5792 5795 5798 5802 5804 5807 5809 5813 5815 5817 5819 5822 5827 5823 5824 5825 5826 5827 5826 5827 5829 5830 5830 5830 5831 5831 5831 5831 5830 5829 5830 5830 5829 5829 5829 5828 5828 5828 5827 5827 5827 5827 5826
5782 5785 5788 5792 5797 5797 5799 5802 5806 5809 5812 5814 5817 5821 5817 5818 5819 5820 5821 5821 5822 5823 5825 5825 5826 5826 5827 5827 5826 5826 5825 5825 5826 5825 5825 5825 5825 5824 5824 5824 5823 5823 5823 5822
5775 5777 5781 5786 5788 5791 5793 5796 5799 5802 5805 5808 5811 5814 5812 5813 5812 5813 5815 5816 5817 5817 5819 5820 5821 5821 5822 5822 5822 5821 5821 5821 5821 5821 5821 5821 5821 5820 5820 5820 5820 5820 5819 5819
5767 5770 5774 5777 5781 5784 5788 5790 5793 5796 5799 5803 5806 5807 5807 5808 5807 5809 5810 5811 5811 5812 5814 5815 5816 5816 5817 5817 5817 5817 5816 5816 5816 5816 5816 5816 5817 5816 5816 5816 5816 5816 5815 5815
5759 5763 5767 5771 5775 5777 5779 5783 5787 5790 5793 5796 5799 5801 5801 5801 5803 5803 5804 5806 5807 5807 5808 5810 5811 5812 5812 5812 5812 5812 5811 5811 5811 5811 5811 5811 5812 5812 5812 5812 5812 5812 5812 5811
5753 5756 5760 5764 5768 5770 5773 5777 5780 5783 5786 5789 5792 5795 5797 5797 5797 5798 5799 5800 5801 5802 5804 5805 5805 5806 5807 5807 5807 5806 5806 5806 5806 5806 5806 5806 5806 5807 5807 5808 5808 5808 5808 5808
5747 5750 5753 5757 5760 5762 5769 5770 5773 5776 5779 5782 5784 5786 5789 5791 5791 5792 5794 5795 5796 5797 5798 5799 5800 5800 5801 5801 5801 5801 5801 5801 5801 5801 5801 5801 5801 5802 5802 5803 5803 5803 5803 5803
5741 5744 5747 5750 5752 5755 5760 5762 5765 5769 5771 5774 5776 5779 5782 5784 5786 5787 5789 5790 5791 5792 5793 5793 5795 5795 5795 5796 5796 5796 5796 5796 5796 5795 5795 5796 5796 5797 5797 5797 5798 5798 5798 5798
5735 5738 5741 5743 5746 5749 5754 5756 5759 5763 5764 5767 5770 5773 5776 5778 5780 5781 5783 5784 5785 5786 5788 5789 5789 5789 5789 5790 5790 5791 5791 5791 5791 5791 5791 5791 5791 5791 5792 5792 5793 5793 5793 5793
5729 5732 5734 5737 5740 5743 5746 5749 5752 5757 5759 5760 5762 5765 5768 5771 5773 5775 5777 5778 5780 5781 5782 5783 5783 5784 5784 5784 5785 5785 5785 5786 5786 5786 5786 5786 5786 5786 5787 5787 5787 5788 5788 5789
5724 5727 5729 5732 5734 5739 5740 5743 5746 5748 5750 5752 5755 5757 5760 5764 5766 5769 5770 5772 5773 5775 5775 5777 5778 5779 5779 5779 5779 5779 5780 5780 5780 5781 5781 5781 5781 5782 5782 5782 5782 5783 5783 5783
5719 5722 5724 5727 5730 5732 5734 5737 5739 5741 5744 5746 5749 5751 5754 5757 5760 5762 5764 5766 5767 5768 5769 5770 5772 5773 5773 5774 5774 5774 5774 5775 5775 5776 5776 5776 5776 5777 5777 5776 5776 5777 5777 5777
5713 5716 5718 5721 5724 5726 5728 5730 5732 5734 5737 5740 5742 5745 5747 5750 5753 5755 5757 5759 5761 5761 5763 5764 5765 5766 5767 5767 5768 5768 5769 5769 5769 5770 5770 5770 5771 5771 5771 5771 5771 5771 5772 5772
5709 5710 5713 5715 5718 5720 5723 5725 5726 5729 5731 5734 5737 5739 5741 5744 5746 5748 5751 5753 5754 5755 5756 5757 5758 5759 5760 5761 5761 5762 5762 5763 5763 5764 5764 5764 5765 5765 5765 5765 5765 5765 5766 5766
5704 5706 5708 5710 5713 5716 5718 5719 5721 5723 5726 5728 5731 5734 5735 5737 5739 5742 5745 5747 5748 5748 5749 5750 5751 5752 5753 5753 5754 5755 5755 5756 5757 5758 5758 5758 5758 5759 5759 5759 5759 5759 5759 5760